PSLV DEB

基本信息
目录编号:
27585
目录名称:
PSLV DEB
国际标识:
2001-049ND
轨道中心:
EARTH
物体状态:
在轨
发射日期:
2001-10-22 UTC
轨道信息
数据来源: 国际轨道数据
星历时间: 2026-07-12T09:27:30+0800
半长轴: 6985.571km
偏心率: 0.0049654
轨道倾角: 98.287°
近地点辐角: 206.988°
升交点赤经: 226.948°
平近点角: 152.875°
近地点: 572.747km
远地点: 642.121km
周期: 96.842分钟
每日圈数: 14.869623
详细信息
发射场:
SRI
轨道高度:
LEO
数据来源:
AOE Integration Group
参考系:
TEME
时间系统:
UTC
历元类型:
SGP4
2D轨道图
3D轨道图
轨道高度分析图
轨道倾角分析图
轨道综合分析图
查看轨道综合分析图